GW5781 Weather Reports


Display with metric or nautical units.
time (UTC)temp
F
wind
direction
speed
MPH
gust
MPH
rain 1hr
in
rain 24hr
in
rain mn
in
humidity
%
barometer
mb
20260504110357 53 232 12.0 17.0 0.00 0.00 0.00 52 995.9
20260504100314 52 222 11.0 17.0 0.00 0.00 0.00 52 995.9
20260504081708 50 211 8.0 13.0 0.00 0.00 0.00 54 997.6
20260504081204 50 212 9.0 13.0 0.00 0.00 0.00 55 997.9
20260504080700 50 207 10.0 12.0 0.00 0.00 0.00 55 998.0
20260504080157 50 217 12.0 12.0 0.00 0.00 0.00 55 997.8
20260504070125 50 238 5.0 7.0 0.00 0.00 0.00 53 998.7
20260504050514 50 241 5.0 5.0 0.00 0.00 0.00 51 1001.2
20260504050011 51 251 3.0 4.0 0.00 0.00 0.00 51 1001.2
20260504045507 51 257 3.0 4.0 0.00 0.00 0.00 49 1001.4
20260504045003 51 250 3.0 4.0 0.00 0.00 0.00 49 1001.4
20260504044500 51 269 3.0 4.0 0.00 0.00 0.00 49 1001.3
20260504043957 51 248 4.0 4.0 0.00 0.00 0.00 50 1001.6
20260504043454 50 269 0.0 1.0 0.00 0.00 0.00 51 1001.4
20260504042952 50 214 0.0 1.0 0.00 0.00 0.00 50 1001.5
20260504042448 51 216 2.0 2.0 0.00 0.00 0.00 50 1001.5
20260504041945 51 243 4.0 4.0 0.00 0.00 0.00 48 1001.8
20260504041441 51 269 3.0 4.0 0.00 0.00 0.00 48 1001.6
20260504040937 51 265 3.0 4.0 0.00 0.00 0.00 48 1001.9
20260504040435 52 265 3.0 4.0 0.00 0.00 0.00 47 1001.8
20260504035931 52 244 3.0 3.0 0.00 0.00 0.00 47 1001.8
20260504035428 52 277 2.0 3.0 0.00 0.00 0.00 47 1001.9
20260504034925 52 279 2.0 2.0 0.00 0.00 0.00 47 1002.1
20260504034423 52 223 1.0 2.0 0.00 0.00 0.00 49 1002.6
20260504033919 52 218 0.0 2.0 0.00 0.00 0.00 48 1002.3
20260504033417 52 183 1.0 2.0 0.00 0.00 0.00 46 1002.4
20260504032914 53 202 2.0 3.0 0.00 0.00 0.00 44 1002.4
20260504032411 54 309 0.0 0.0 0.00 0.00 0.00 43 1002.4
20260504031908 54 282 0.0 2.0 0.00 0.00 0.00 42 1002.6
20260504031405 54 259 1.0 2.0 0.00 0.00 0.00 42 1002.7
20260504030901 55 221 2.0 2.0 0.00 0.00 0.00 41 1002.8
20260504030358 56 247 2.0 2.0 0.00 0.00 0.00 40 1002.9
20260504025854 55 271 2.0 3.0 0.00 0.00 0.00 41 1003.0
20260504025351 56 267 2.0 3.0 0.00 0.00 0.00 40 1002.8
20260504024848 57 269 2.0 3.0 0.00 0.00 0.00 39 1003.1
20260504024345 57 260 2.0 3.0 0.00 0.00 0.00 37 1002.9
20260504023842 57 285 3.0 3.0 0.00 0.00 0.00 37 1002.9
20260504023339 58 266 2.0 2.0 0.00 0.00 0.00 36 1003.0
20260504022834 59 268 2.0 2.0 0.00 0.00 0.00 35 1003.1
20260504022331 60 268 2.0 2.0 0.00 0.00 0.00 33 1002.8
20260504021827 59 267 1.0 2.0 0.00 0.00 0.00 34 1003.2
20260504021325 58 275 1.0 2.0 0.00 0.00 0.00 35 1003.0
20260504020822 59 285 2.0 2.0 0.00 0.00 0.00 35 1002.9
20260504020319 60 242 2.0 2.0 0.00 0.00 0.00 34 1002.8
20260504015814 60 251 1.0 2.0 0.00 0.00 0.00 33 1003.2
20260504015311 60 306 2.0 2.0 0.00 0.00 0.00 33 1003.2
20260504014807 61 285 2.0 2.0 0.00 0.00 0.00 32 1003.2
20260504014303 61 198 2.0 3.0 0.00 0.00 0.00 33 1003.3
20260504013801 62 263 2.0 2.0 0.00 0.00 0.00 31 1003.1
20260504013259 63 291 2.0 3.0 0.00 0.00 0.00 29 1003.1
20260504012755 63 301 3.0 5.0 0.00 0.00 0.00 28 1003.3
20260504012253 63 305 2.0 3.0 0.00 0.00 0.00 29 1003.5
20260504011749 64 294 4.0 4.0 0.00 0.00 0.00 29 1003.3
20260504011246 64 331 2.0 3.0 0.00 0.00 0.00 29 1003.2
20260504010742 64 288 3.0 4.0 0.00 0.00 0.00 29 1003.2
20260504010238 64 296 4.0 4.0 0.00 0.00 0.00 29 1003.5
20260504005735 64 301 3.0 3.0 0.00 0.00 0.00 30 1003.4
20260504005232 64 282 4.0 4.0 0.00 0.00 0.00 29 1003.5
20260504004730 65 290 4.0 6.0 0.00 0.00 0.00 28 1003.4
20260504004226 66 280 5.0 8.0 0.00 0.00 0.00 26 1003.4
20260504003723 67 271 6.0 9.0 0.00 0.00 0.00 25 1003.5
20260504003220 68 271 6.0 11.0 0.00 0.00 0.00 24 1003.5
20260504002717 68 268 11.0 15.0 0.00 0.00 0.00 23 1003.7
20260504002214 68 263 9.0 15.0 0.00 0.00 0.00 24 1003.7
20260504001712 69 266 12.0 14.0 0.00 0.00 0.00 24 1003.7
20260504001208 69 261 13.0 17.0 0.00 0.00 0.00 26 1003.9
20260504000705 69 278 19.0 20.0 0.00 0.00 0.00 26 1003.9
20260504000204 69 278 16.0 18.0 0.00 0.00 0.00 26 1003.9
20260503235700 69 260 12.0 16.0 0.00 0.00 0.00 26 1003.7
20260503235157 69 250 11.0 18.0 0.00 0.00 0.00 28 1003.8
20260503234655 70 271 15.0 18.0 0.00 0.00 0.00 25 1003.8
20260503234153 70 289 13.0 20.0 0.00 0.00 0.00 24 1003.9
20260503233649 70 281 11.0 18.0 0.00 0.00 0.00 25 1003.8
20260503233145 70 266 12.0 17.0 0.00 0.00 0.00 25 1004.0
20260503232642 71 276 13.0 20.0 0.00 0.00 0.00 26 1004.2
20260503232139 70 277 13.0 14.0 0.00 0.00 0.00 26 1004.1
20260503231638 71 281 20.0 21.0 0.00 0.00 0.00 25 1004.4
20260503231133 71 289 13.0 17.0 0.00 0.00 0.00 25 1004.4
20260503230631 70 279 10.0 20.0 0.00 0.00 0.00 25 1004.2
20260503230128 70 279 18.0 19.0 0.00 0.00 0.00 24 1004.2
20260503225625 71 286 17.0 26.0 0.00 0.00 0.00 24 1004.4
20260503225125 71 283 14.0 21.0 0.00 0.00 0.00 23 1004.5
20260503224622 71 323 15.0 21.0 0.00 0.00 0.00 24 1004.5
20260503224120 71 336 9.0 17.0 0.00 0.00 0.00 26 1004.4
20260503223618 71 317 9.0 21.0 0.00 0.00 0.00 25 1004.2
20260503223113 71 297 19.0 20.0 0.00 0.00 0.00 24 1004.5
20260503222612 71 277 17.0 19.0 0.00 0.00 0.00 25 1004.4
20260503222109 71 277 12.0 18.0 0.00 0.00 0.00 25 1004.4
20260503221607 71 292 19.0 22.0 0.00 0.00 0.00 24 1004.4
20260503221104 71 272 14.0 18.0 0.00 0.00 0.00 25 1004.4
20260503220600 71 288 13.0 18.0 0.00 0.00 0.00 25 1004.5
20260503220058 71 276 14.0 23.0 0.00 0.00 0.00 25 1004.5
20260503215555 71 291 14.0 23.0 0.00 0.00 0.00 24 1004.4
20260503215051 71 280 12.0 21.0 0.00 0.00 0.00 26 1004.6
20260503214550 70 0 8.0 18.0 0.00 0.00 0.00 26 1004.6
20260503214046 71 266 14.0 21.0 0.00 0.00 0.00 26 1004.4
20260503213544 71 273 15.0 20.0 0.00 0.00 0.00 26 1004.6
20260503213041 71 276 13.0 19.0 0.00 0.00 0.00 26 1004.7
20260503212538 70 287 12.0 15.0 0.00 0.00 0.00 25 1004.7
20260503212036 71 317 7.0 21.0 0.00 0.00 0.00 25 1004.8
20260503211532 70 284 11.0 16.0 0.00 0.00 0.00 26 1004.8
20260503211028 70 304 13.0 16.0 0.00 0.00 0.00 26 1004.9
20260503210525 70 296 19.0 23.0 0.00 0.00 0.00 25 1005.1
20260503210021 70 323 8.0 16.0 0.00 0.00 0.00 25 1005.2
20260503205518 71 291 5.0 15.0 0.00 0.00 0.00 24 1005.0
20260503205014 70 341 7.0 16.0 0.00 0.00 0.00 26 1005.3
20260503204511 71 344 15.0 21.0 0.00 0.00 0.00 24 1005.3
20260503204008 70 291 18.0 19.0 0.00 0.00 0.00 26 1005.0
20260503203505 70 279 13.0 15.0 0.00 0.00 0.00 25 1005.6
20260503203002 70 309 7.0 17.0 0.00 0.00 0.00 25 1005.6
20260503202500 70 300 9.0 18.0 0.00 0.00 0.00 25 1005.5
20260503201958 69 295 15.0 21.0 0.00 0.00 0.00 25 1005.7
20260503201455 70 298 16.0 24.0 0.00 0.00 0.00 25 1005.6
20260503200953 69 307 9.0 19.0 0.00 0.00 0.00 26 1005.5
20260503200449 70 291 6.0 18.0 0.00 0.00 0.00 26 1005.6
20260503195945 69 281 14.0 28.0 0.00 0.00 0.00 26 1005.8
20260503195443 69 298 8.0 14.0 0.00 0.00 0.00 27 1005.8
20260503194939 71 328 9.0 25.0 0.00 0.00 0.00 25 1005.7
20260503194437 70 263 14.0 19.0 0.00 0.00 0.00 27 1006.0
20260503193932 69 326 6.0 12.0 0.00 0.00 0.00 28 1005.9
20260503193427 69 295 12.0 21.0 0.00 0.00 0.00 28 1006.0
20260503192923 69 326 11.0 19.0 0.00 0.00 0.00 28 1006.1
20260503192420 70 337 12.0 20.0 0.00 0.00 0.00 29 1005.9
20260503191915 69 308 17.0 28.0 0.00 0.00 0.00 28 1006.0
20260503191413 70 318 19.0 26.0 0.00 0.00 0.00 27 1005.9
20260503190909 68 325 7.0 14.0 0.00 0.00 0.00 30 1006.2
20260503190407 68 346 8.0 17.0 0.00 0.00 0.00 31 1006.1
20260503185903 68 339 12.0 19.0 0.00 0.00 0.00 28 1006.1
20260503185400 68 352 10.0 17.0 0.00 0.00 0.00 29 1006.2
20260503184859 68 322 13.0 19.0 0.00 0.00 0.00 28 1006.4
20260503184356 68 327 13.0 14.0 0.00 0.00 0.00 29 1006.2
20260503183852 68 305 14.0 21.0 0.00 0.00 0.00 27 1006.2
20260503183349 68 289 16.0 21.0 0.00 0.00 0.00 28 1006.4
20260503182846 68 320 8.0 21.0 0.00 0.00 0.00 28 1006.2
20260503182345 68 323 5.0 18.0 0.00 0.00 0.00 31 1006.4
20260503181842 68 294 13.0 22.0 0.00 0.00 0.00 30 1006.5
20260503181339 67 306 12.0 17.0 0.00 0.00 0.00 29 1006.5
20260503180836 67 309 9.0 23.0 0.00 0.00 0.00 30 1006.7
20260503180334 67 310 13.0 19.0 0.00 0.00 0.00 30 1006.6
20260503175830 67 330 11.0 17.0 0.00 0.00 0.00 31 1006.6
20260503175328 67 323 18.0 19.0 0.00 0.00 0.00 30 1006.7
20260503174823 66 355 7.0 18.0 0.00 0.00 0.00 31 1006.7
20260503174322 67 285 6.0 15.0 0.00 0.00 0.00 32 1006.8
20260503173817 67 307 11.0 24.0 0.00 0.00 0.00 30 1006.8
20260503173313 67 321 10.0 17.0 0.00 0.00 0.00 31 1006.9
20260503172810 67 316 5.0 17.0 0.00 0.00 0.00 30 1006.9
20260503172308 66 311 11.0 20.0 0.00 0.00 0.00 30 1007.1
20260503171803 66 315 11.0 19.0 0.00 0.00 0.00 33 1006.9
20260503171300 65 318 4.0 15.0 0.00 0.00 0.00 32 1007.0
20260503170758 65 339 7.0 20.0 0.00 0.00 0.00 31 1007.0
20260503170254 65 278 21.0 22.0 0.00 0.00 0.00 31 1006.8
20260503160217 64 339 9.0 15.0 0.00 0.00 0.00 38 1007.0
20260503150647 62 328 8.0 17.0 0.00 0.00 0.00 42 1006.5
20260503150143 62 302 10.0 20.0 0.00 0.00 0.00 43 1006.5
20260503140107 58 313 7.0 12.0 0.00 0.00 0.00 48 1006.2
20260503131036 54 10 6.0 16.0 0.00 0.00 0.00 54 1005.5
20260503130533 53 306 10.0 16.0 0.00 0.00 0.00 55 1005.6